Regional Weather Roundup
Issued by NWS

Home | Current Version | Previous Version | Text Only | Print | Product List | Glossary Off
Versions: 1 2 3 4 5 6 7 8 9 10 11 12 13 14 15 16 17 18 19 20 21 22 23 24 25 26 27 28 29 30 31 32 33 34 35 36 37 38 39 40 41 42 43 44 45 46 47 48 49 50

000
ASUS43 KLMK 190210
RWRKY
KENTUCKY REGIONAL WEATHER ROUNDUP
NATIONAL WEATHER SERVICE LOUISVILLE KY
900 PM EST SAT FEB 18 2017

NOTE "FAIR" INDICATES FEW OR NO CLOUDS BELOW 12,000 FEET
WITH NO SIGNIFICANT WEATHER AND/OR OBSTRUCTIONS TO VISIBILITY.

KYZ001>023-026-027-061>063-070>075-190300-
WESTERN AND SOUTH CENTRAL KENTUCKY

CITY           SKY/WX    TMP DP  RH WIND       PRES   REMARKS
PADUCAH        CLOUDY    51  48  89 S6        29.92S
HENDERSON      CLOUDY    50  46  87 S6        29.91S
OWENSBORO      LGT RAIN  50  49  96 SW7       29.92R
HOPKINSVILLE   CLOUDY    51  51 100 SE3       29.93S
BOWLING GREEN  CLOUDY    52  47  83 SW3       29.95S
GLASGOW        CLOUDY    49  45  84 SW3       29.94S
$$

KYZ024-025-028>034-038-045-046-053-190300-
NORTH CENTRAL KENTUCKY

CITY           SKY/WX    TMP DP  RH WIND       PRES   REMARKS
LOUISVILLE/SDF LGT RAIN  51  48  89 SW3       29.92R
LOUISVILLE/LOU LGT RAIN  51  48  89 SW3       29.92R
FORT KNOX      LGT RAIN  49  49  99 SW3       29.90R
$$

KYZ035>037-039>044-047>052-055>060-089>105-190300-
NORTHEAST KENTUCKY

CITY           SKY/WX    TMP DP  RH WIND       PRES   REMARKS
LEXINGTON      CLOUDY    49  43  80 SW7       29.91S
COVINGTON      CLOUDY    50  46  86 SW9       29.88R
FRANKFORT      LGT RAIN  50  46  86 SW7       29.90R FOG
$$

KYZ054-064>069-076>088-106>120-190300-
SOUTHEAST KENTUCKY

CITY           SKY/WX    TMP DP  RH WIND       PRES   REMARKS
JACKSON        CLOUDY    47  44  90 CALM      29.93R
LONDON         CLOUDY    48  46  93 CALM      29.94R FOG
SOMERSET       CLOUDY    46  45  93 CALM      29.96R
MIDDLESBORO    CLOUDY    48  48 100 CALM      29.96R FOG
MONTICELLO     MOCLDY    47  45  93 W12       29.97R
$$





USA.gov is the U.S. government's official web portal to all federal, state and local government web resources and services.